This demonstration page uses our WeatherBlox Daily Observations layout. Learn more.

Left ArrowRight Arrow

39.01783, -85.05884

Hourly Observations for March 26, 2017

Temp ( °F °C ) Dew Point ( °F °C ) Humidity (%) Winds ( mph kmh ) Pressure ( in mb ) Visibility ( mi km ) Precip ( " mm )
12:52 am 00:52 Cloudy with Light Rain 62 16.7 55 12.8 78 78 Calm 29.99 1016 6 10 0.03 0.76
1:52 am 01:52 Cloudy with Light Rain 60 15.6 56 13.3 86 86 SSW 5 7 29.98 1015 10 16 0.01 0.25
2:52 am 02:52 Cloudy 60 15.6 56 13.3 86 86 SSW 8 13 29.97 1015 10 16 0.00 0.03
3:52 am 03:52 Cloudy 60 15.6 56 13.3 86 86 SSW 8 13 29.97 1015 10 16 0.00 0.03
4:47 am 04:47 Cloudy 59 15 55 13 88 88 SSW 7 11 29.97 1015 10 16 0.00 0.00
4:52 am 04:52 Cloudy 59 15 56 13.3 90 90 SSW 7 11 29.95 1014 10 16 0.00 0.00
5:14 am 05:14 Cloudy with Light Rain 57 14 55 13 94 94 SSW 8 13 29.97 1015 10 16 0.00 0.00
5:37 am 05:37 Cloudy with Light Rain 58 14.4 56 13.3 93 93 S 5 7 29.97 1015 7 11 0.01 0.25
5:52 am 05:52 Cloudy with Light Rain 58 14.4 56 13.3 93 93 SSW 6 9 29.96 1015 10 16 0.02 0.51
6:27 am 06:27 Cloudy with Light Rain 58 14.4 56 13.3 93 93 SSW 6 9 29.97 1015 10 16 0.00 0.03
6:52 am 06:52 Cloudy with Light Rain 57 13.9 56 13.3 96 96 S 7 11 29.96 1015 10 16 0.00 0.03
7:43 am 07:43 Cloudy with Light Rain 57 13.9 55 12.8 93 93 S 9 15 29.97 1015 7 11 0.07 1.78
7:52 am 07:52 Cloudy with Light Rain 57 13.9 55 12.8 93 93 S 9 15 29.95 1014 10 16 0.07 1.78
8:28 am 08:28 Cloudy 55 13 55 13 100 100 S 8 13 30.00 1016 10 16 0.00 0.00
8:52 am 08:52 Cloudy 56 13.3 55 12.8 97 97 S 8 13 29.98 1015 10 16 0.00 0.03
9:44 am 09:44 Cloudy with Light Rain 57 14 55 13 94 94 S 12 19 30.00 1016 10 16 0.00 0.00
9:52 am 09:52 Cloudy 58 14.4 56 13.3 93 93 S 10 17 29.97 1015 10 16 0.00 0.03
10:10 am 10:10 Cloudy with Heavy Rain 57 13.9 55 12.8 93 93 S 10 17 30.00 1016 2 2 0.02 0.51
10:32 am 10:32 Cloudy with Light Rain 57 13.9 56 13.3 96 96 S 8 13 30.00 1016 5 8 0.07 1.78
10:52 am 10:52 Cloudy with Rain 58 14.4 56 13.3 93 93 S 7 11 29.97 1015 5 8 0.08 2.03
10:54 am 10:54 Cloudy with Rain 58 14.4 56 13.3 93 93 S 7 11 30.00 1016 3 4 0.01 0.25
11:52 am 11:52 Cloudy with Rain 58 14.4 57 13.9 97 97 SSE 7 11 29.97 1015 3 5 0.21 5.33
12:22 pm 12:22 Cloudy with Heavy Rain 57 13.9 56 13.3 96 96 SSE 10 17 30.00 1016 2 3 0.06 1.52
12:52 pm 12:52 Cloudy with Light Rain 57 13.9 56 13.3 96 96 SE 9 15 29.96 1015 2 3 0.22 5.59
1:16 pm 13:16 Cloudy 59 15 57 14 94 94 SSE 8 13 29.97 1015 10 16 0.00 0.00
1:52 pm 13:52 Cloudy 62 16.7 58 14.4 86 86 SSW 9 15 29.93 1014 10 16 0.00 0.03
2:52 pm 14:52 Mostly Cloudy 64 17.8 56 13.3 75 75 SSW 8 13 29.91 1013 10 16 0.00 0.03
3:52 pm 15:52 Mostly Cloudy 66 18.9 55 12.8 68 68 S 14 22 29.87 1012 10 16 0.00 0.00
4:52 pm 16:52 Mostly Cloudy 67 19.4 53 11.7 61 61 S 13 20 29.87 1011 10 16 0.00 0.00
5:39 pm 17:39 Cloudy with Light Rain 62 16.7 54 12.2 75 75 W 24 39 29.91 1013 4 6 0.01 0.25
5:44 pm 17:44 Cloudy with Heavy Rain 57 14 54 12 88 88 W 16 26 29.91 1013 2 2 0.00 0.00
5:52 pm 17:52 Cloudy with Light Rain 57 13.9 55 12.8 93 93 WNW 13 20 29.88 1012 4 6 0.11 2.79
5:59 pm 17:59 Cloudy with Light Rain 57 13.9 55 12.8 93 93 W 6 9 29.91 1013 7 11 0.01 0.25
6:52 pm 18:52 Cloudy with Light Rain 58 14.4 55 12.8 90 90 WSW 5 7 29.89 1012 10 16 0.02 0.51
7:52 pm 19:52 Cloudy 58 14.4 56 13.3 93 93 WSW 6 9 29.92 1013 8 13 0.00 0.03
8:52 pm 20:52 Mostly Cloudy 57 13.9 55 12.8 93 93 SSW 6 9 29.93 1014 10 16 0.00 0.03
9:52 pm 21:52 Mostly Clear 56 13.3 54 12.2 93 93 SW 6 9 29.95 1014 10 16 0.00 0.00
10:52 pm 22:52 Partly Cloudy 55 12.8 54 12.2 96 96 WSW 5 7 29.96 1015 10 16 0.00 0.00
11:52 pm 23:52 Clear 55 12.8 53 11.7 93 93 WSW 6 9 29.97 1015 10 16 0.00 0.00

Powered by AerisWeather